DK2OO-6 Weather Reports


Display with metric or nautical units.
time (UTC)temp
F
wind
direction
speed
MPH
gust
MPH
rain 1hr
in
rain 24hr
in
rain mn
in
humidity
%
barometer
mb
20260507032033 46 180 0.0 0.0 0.00 1.04 0.00 82 1004.7
20260507002858 48 180 0.0 0.0 0.00 1.04 0.00 81 1004.1
20260506223819 49 180 0.0 0.0 0.00 1.04 0.00 80 1003.8
20260506205746 51 180 2.0 6.0 0.00 1.04 0.00 80 1003.3
20260506200720 52 180 0.0 0.0 0.00 1.04 0.00 79 1002.9
20260506184647 53 270 0.0 0.0 0.00 1.04 0.00 78 1002.2
20260506183647 53 270 0.0 0.0 6.95 1.04 0.00 78 1001.9
20260506162538 58 292 0.0 0.0 0.00 5.20 0.00 66 999.6
20260506155524 62 292 0.0 0.0 0.00 5.20 0.00 64 999.7
20260506121320 68 157 0.0 0.0 0.00 5.20 0.00 52 999.6
20260506115319 69 157 0.0 0.0 0.00 1.04 0.00 53 999.7
20260506114309 69 157 0.0 0.0 0.00 1.04 0.00 53 999.6
20260506103235 67 225 0.0 0.0 0.00 1.04 0.00 57 1000.5
20260506100229 66 112 0.0 0.0 0.00 1.04 0.00 62 1000.7
20260506094223 64 180 0.0 1.0 0.00 1.04 0.00 66 1000.6
20260506091210 60 202 0.0 0.0 1.04 1.04 0.00 69 1000.7
20260506085157 60 202 0.0 0.0 1.04 1.04 0.00 70 1000.5
20260506082150 58 202 0.0 0.0 1.04 1.04 0.00 73 1000.8
20260506073123 57 202 0.0 0.0 0.00 5.20 0.00 77 1001.1
20260506072123 56 202 0.0 0.0 0.00 5.20 0.00 78 1000.9
20260506062107 50 225 0.0 0.0 0.00 5.20 0.00 82 1001.0
20260506041015 44 225 0.0 0.0 0.00 5.20 0.00 79 1001.7